Track STARLINK-2372 now! 10-day predictions STARLINK-2372 is classified as:
1 47912U 21021BE 22185.49493719 .00000489 00000-0 51716-4 0 9998 2 47912 53.0548 185.9387 0001727 53.7317 306.3831 15.06401490 73435